Retour au catalogue

CZ-6A DEB

ActifPO
NORAD 54275·DEBRIS·🇨🇳 China

Lancé Nov 11, 2022 depuis Taiyuan Satellite Launch Center

Loading…

Prochains Passages (prochaines 24 heures)

TLE

FraisSource: Space-Track

Époque: Sep 14, 2026, 05:53 UTC

1 54275U 22151S   26257.24514792  .00006330  00000-0  94074-3 0  9999
2 54275  98.8210   6.5692 0073698   2.7593 357.4004 14.73540551203317

Suivez CZ-6A DEB en temps réel avec AllMySat

Download on the App Store